This is the latest recevied weather packets stored in our database for station/object KU4DD. If no packets are shown the sender has not sent any weather packets the latest 10 day(s).
| Time | Temp. | Humidity | Pressure | Rain* | Wind** | Luminosity | Snow |
|---|---|---|---|---|---|---|---|
| 1787883986 | 21.67° C | 97% | 1015.2 hPa | 0 mm | - | 0 W/m² | - |
| 1787879636 | 21.67° C | 96% | 1014.6 hPa | 0 mm | - | 0 W/m² | - |
| 1787878401 | 22.22° C | 96% | 1014.6 hPa | 0 mm | - | 0 W/m² | - |
| 1787877767 | 22.22° C | 96% | 1014.6 hPa | 0 mm | - | 0 W/m² | - |
| 1787876835 | 22.22° C | 96% | 1014.6 hPa | 0 mm | - | 0 W/m² | - |
| 1787876580 | 22.22° C | 96% | 1014.6 hPa | 0 mm | - | 0 W/m² | - |
| 1787876257 | 22.78° C | 96% | 1014.6 hPa | 0 mm | - | 0 W/m² | - |
| 1787871339 | 22.78° C | 96% | 1013.9 hPa | 4.32 mm | - | 11 W/m² | - |
| 1787870400 | 22.78° C | 96% | 1013.9 hPa | 9.14 mm | - | 5 W/m² | - |
| 1787867308 | 22.22° C | 95% | 1015.2 hPa | 23.88 mm | - | 0 W/m² | - |
| 1787866750 | 22.22° C | 95% | 1015.2 hPa | 19.3 mm | - | 0 W/m² | - |
| 1787863738 | 28.89° C | 74% | 1012.9 hPa | 0 mm | - | 11 W/m² | - |
| 1787862189 | 30° C | 69% | 1013.5 hPa | 0 mm | - | 67 W/m² | - |
| 1787858187 | 32.22° C | 59% | 1013.9 hPa | 0 mm | - | 624 W/m² | - |
| 1787857869 | 32.22° C | 58% | 1013.9 hPa | 0 mm | - | 816 W/m² | - |
| 1787857545 | 32.22° C | 60% | 1014.2 hPa | 0 mm | - | 837 W/m² | - |
| 1787857228 | 31.67° C | 65% | 1013.9 hPa | 0 mm | - | 921 W/m² | - |
| 1787856296 | 32.78° C | 59% | 1014.2 hPa | 0 mm | - | 856 W/m² | - |
| 1787854290 | 31.67° C | 61% | 1014.6 hPa | 0 mm | - | 949 W/m² | - |
| 1787853460 | 32.22° C | 61% | 1014.6 hPa | 0 mm | - | 255 W/m² | - |
| 1787850583 | 31.67° C | 61% | 1015.2 hPa | 0 mm | - | 993 W/m² | - |
| 1787846776 | 30.56° C | 67% | 1016.3 hPa | 0 mm | - | 186 W/m² | - |
| 1787845507 | 28.89° C | 74% | 1016.6 hPa | 0 mm | - | 928 W/m² | - |
| 1787843973 | 28.89° C | 73% | 1016.6 hPa | 0 mm | - | 308 W/m² | - |
| 1787841794 | 28.89° C | 73% | 1016.3 hPa | 0 mm | - | 803 W/m² | - |
* Rain latest hour (hover to see other rain measurements)
** Current wind speed in m/s (hover to see current wind gust speed)